User: anonymous   Login
Location: Unspecified
(0.0000°N, 0.0000°E)
Time: 09:09:28
(UTC+00:00)
Language:

Nadezhda 6 - Orbit

View from above orbital plane
View from above orbital plane
View from above satellite
View from above satellite

Ground track
Ground track

The orbit data is extracted from the following two-line orbital elements,

1 26384U 00033A   18110.16492028  .00000094  00000-0  25471-4 0  9998
2 26384  97.9724 173.1946 0016007 133.0702 227.1856 14.66420601951796
Epoch (UTC): 20 April 2018 03:57:29
Eccentricity: 0.0016007
inclination: 97.9724°
perigee height: 661 km
apogee height: 684 km
right ascension of ascending node: 173.1946°
argument of perigee: 133.0702°
revolutions per day: 14.66420601
mean anomaly at epoch: 227.1856°
orbit number at epoch: 95179

The dashed part of the orbit path shows where the satellite is in the earth's shadow,  

DLR